Regional Weather Roundup
Issued by NWS

Home | Current Version | Previous Version | Text Only | Print | Product List | Glossary On
Versions: 1 2 3 4 5 6 7 8 9 10 11 12 13 14 15 16 17 18 19 20 21 22 23 24 25 26 27 28 29 30 31 32 33 34 35 36 37 38 39 40 41 42 43 44 45 46 47 48 49 50
000
ASCA42 TJSJ 020811
RWRPR
PUERTO RICO/U.S. VIRGIN ISLANDS HOURLY WEATHER ROUNDUP
NATIONAL WEATHER SERVICE SAN JUAN PR
400 AM AST THU OCT 02 2014

PRZ001-004-020900-
PUERTO RICO

CITY           SKY/WX    TMP DP  RH WIND       PRES   REMARKS
SAN JUAN LMM   CLEAR     81  75  83 SE3       29.99S
CEIBA          PTCLDY    81  75  83 E7        30.01F
$$

PRZ006-007-020900-
U.S. VIRGIN ISLANDS

CITY           SKY/WX    TMP DP  RH WIND       PRES   REMARKS
CHARLOTTE AMA  LGT RAIN  81  75  83 E9        29.99F
CHRISTIANSTED  PTCLDY    81  73  78 NE5       30.00S
$$

HOURLY WEATHER ROUNDUP FOR THE NEWS MEDIA

CITY           SKY/WX    TMP DP  RH WIND       PRES   REMARKS
MIAMI          PTCLDY    81  76  84 W3        29.96S
ORLANDO        CLEAR     75  73  93 N3        29.97S
NEW YORK       CLOUDY    61  55  81 N12       30.08F
NEWARK         CLOUDY    60  58  92 N7        30.08S
CHICAGO        CLOUDY    63  56  78 SE7       29.87F
HARTFORD       CLOUDY    59  57  93 N7        30.04S
BOSTON         LGT RAIN  55  54  96 NE20      30.11S
DALLAS         PTCLDY    79  70  74 S13       29.77S
PHILADELPHIA   CLOUDY    64  56  75 NE3       30.08S


USA.gov is the U.S. government's official web portal to all federal, state and local government web resources and services.